This is the latest recevied weather packets stored in our database for station/object N2UFM. If no packets are shown the sender has not sent any weather packets the latest 10 day(s).
| Time | Temp. | Humidity | Pressure | Rain* | Wind** | Luminosity | Snow |
|---|---|---|---|---|---|---|---|
| 1778239292 | 11.11° C | 74% | 1014.3 hPa | 0 mm | - | - | - |
| 1778238992 | 10.56° C | 75% | 1014.3 hPa | 0 mm | - | - | - |
| 1778238692 | 10° C | 76% | 1014.3 hPa | 0 mm | - | - | - |
| 1778238391 | 10° C | 78% | 1014.1 hPa | 0 mm | - | - | - |
| 1778238091 | 9.44° C | 79% | 1014.1 hPa | 0 mm | - | - | - |
| 1778237791 | 8.89° C | 80% | 1014 hPa | 0 mm | - | - | - |
| 1778237491 | 8.89° C | 80% | 1013.9 hPa | 0 mm | - | - | - |
| 1778237191 | 8.33° C | 81% | 1013.9 hPa | 0 mm | - | - | - |
| 1778236891 | 8.33° C | 81% | 1014 hPa | 0 mm | - | - | - |
| 1778236591 | 8.33° C | 82% | 1013.8 hPa | 0 mm | - | - | - |
| 1778236290 | 8.33° C | 82% | 1013.7 hPa | 0 mm | - | - | - |
| 1778235990 | 7.78° C | 82% | 1013.8 hPa | 0 mm | - | - | - |
| 1778235690 | 7.78° C | 82% | 1013.7 hPa | 0 mm | - | - | - |
| 1778235390 | 8.33° C | 81% | 1013.7 hPa | 0 mm | - | - | - |
| 1778235090 | 8.33° C | 81% | 1013.6 hPa | 0 mm | - | - | - |
| 1778234790 | 8.33° C | 81% | 1013.5 hPa | 0 mm | - | - | - |
| 1778234490 | 8.33° C | 81% | 1013.5 hPa | 0 mm | - | - | - |
| 1778234189 | 8.33° C | 80% | 1013.6 hPa | 0 mm | - | - | - |
| 1778233889 | 8.33° C | 80% | 1013.5 hPa | 0 mm | - | - | - |
| 1778233589 | 8.33° C | 79% | 1013.5 hPa | 0 mm | - | - | - |
| 1778233289 | 8.89° C | 79% | 1013.5 hPa | 0 mm | - | - | - |
| 1778232989 | 8.89° C | 78% | 1013.4 hPa | 0 mm | - | - | - |
| 1778232689 | 8.89° C | 77% | 1013.3 hPa | 0 mm | - | - | - |
| 1778232388 | 8.89° C | 77% | 1013.4 hPa | 0 mm | - | - | - |
| 1778232088 | 8.89° C | 77% | 1013.3 hPa | 0 mm | - | - | - |
* Rain latest hour (hover to see other rain measurements)
** Current wind speed in m/s (hover to see current wind gust speed)